QPF
0.00 0.00 0.00 0.00 0.00 0.00 0.00 0.00 0.00 0.00 0.00 0.00 0.00 0.00 0.00 0.00 0.00 0.01 0.03 0.04 0.07 0.10 0.12 0.13 0.18 0.24 0.23 0.21 0.21 0.21 0.19 0.12 0.08 0.07 0.06 0.04 0.03 0.03 0.03 0.02 0.02 0.01 0.01
0.00 0.00 0.00 0.00 0.00 0.00 0.00 0.00 0.00 0.00 0.00 0.00 0.00 0.00 0.00 0.00 0.00 0.01 0.02 0.04 0.05 0.08 0.10 0.12 0.15 0.19 0.19 0.20 0.21 0.24 0.22 0.16 0.11 0.10 0.09 0.06 0.05 0.04 0.03 0.02 0.01 0.01 0.02
0.00 0.00 0.00 0.00 0.00 0.00 0.00 0.00 0.00 0.00 0.00 0.00 0.00 0.01 0.01 0.00 0.01 0.01 0.02 0.03 0.05 0.06 0.08 0.10 0.13 0.17 0.19 0.18 0.17 0.19 0.20 0.19 0.14 0.11 0.09 0.06 0.04 0.04 0.04 0.04 0.03 0.03 0.02
0.00 0.00 0.00 0.00 0.00 0.00 0.00 0.00 0.00 0.00 0.00 0.01 0.01 0.01 0.01 0.01 0.01 0.01 0.02 0.03 0.04 0.05 0.07 0.10 0.12 0.14 0.16 0.16 0.16 0.16 0.17 0.18 0.17 0.14 0.09 0.05 0.03 0.02 0.02 0.05 0.07 0.06 0.04
0.00 0.00 0.00 0.00 0.00 0.00 0.00 0.00 0.00 0.00 0.00 0.01 0.02 0.02 0.01 0.01 0.02 0.02 0.02 0.03 0.04 0.05 0.06 0.08 0.10 0.13 0.15 0.15 0.16 0.17 0.17 0.15 0.15 0.15 0.13 0.10 0.08 0.04 0.02 0.03 0.07 0.10 0.10
0.00 0.00 0.00 0.00 0.00 0.00 0.00 0.00 0.01 0.01 0.01 0.01 0.02 0.03 0.02 0.03 0.04 0.04 0.03 0.04 0.03 0.04 0.06 0.06 0.08 0.12 0.13 0.14 0.15 0.14 0.14 0.15 0.15 0.16 0.16 0.13 0.11 0.08 0.06 0.03 0.04 0.08 0.13
0.00 0.00 0.00 0.00 0.00 0.00 0.00 0.00 0.01 0.01 0.01 0.01 0.02 0.02 0.02 0.03 0.04 0.03 0.05 0.08 0.08 0.06 0.06 0.07 0.07 0.11 0.14 0.14 0.16 0.18 0.15 0.15 0.15 0.14 0.14 0.13 0.11 0.09 0.09 0.08 0.06 0.06 0.09
0.00 0.00 0.00 0.00 0.00 0.00 0.00 0.00 0.00 0.01 0.01 0.01 0.02 0.03 0.04 0.06 0.06 0.07 0.07 0.09 0.10 0.10 0.09 0.11 0.11 0.09 0.13 0.18 0.19 0.21 0.20 0.20 0.17 0.16 0.17 0.16 0.12 0.10 0.08 0.08 0.09 0.07 0.06
0.00 0.00 0.00 0.00 0.00 0.00 0.00 0.00 0.00 0.01 0.01 0.02 0.03 0.04 0.07 0.10 0.11 0.10 0.12 0.12 0.14 0.14 0.14 0.12 0.12 0.11 0.13 0.17 0.21 0.20 0.22 0.23 0.22 0.21 0.21 0.20 0.16 0.12 0.11 0.11 0.11 0.09 0.05
0.00 0.00 0.00 0.00 0.00 0.00 0.00 0.00 0.00 0.01 0.01 0.01 0.03 0.05 0.08 0.08 0.09 0.12 0.14 0.15 0.19 0.21 0.17 0.17 0.14 0.12 0.12 0.13 0.16 0.19 0.19 0.24 0.30 0.31 0.30 0.27 0.24 0.18 0.14 0.13 0.13 0.11 0.09
0.00 0.00 0.00 0.00 0.00 0.00 0.00 0.00 0.00 0.01 0.02 0.01 0.03 0.05 0.07 0.06 0.06 0.11 0.12 0.13 0.17 0.21 0.19 0.16 0.14 0.14 0.14 0.13 0.14 0.16 0.17 0.19 0.24 0.30 0.30 0.26 0.25 0.24 0.21 0.18 0.16 0.14 0.11
0.00 0.00 0.00 0.00 0.00 0.00 0.00 0.00 0.01 0.02 0.02 0.01 0.02 0.03 0.04 0.05 0.04 0.06 0.07 0.06 0.08 0.11 0.14 0.17 0.13 0.13 0.14 0.13 0.14 0.15 0.14 0.15 0.18 0.21 0.24 0.26 0.27 0.28 0.28 0.24 0.20 0.16 0.13
0.00 0.00 0.00 0.00 0.00 0.00 0.00 0.00 0.00 0.01 0.01 0.00 0.01 0.01 0.02 0.02 0.02 0.03 0.04 0.04 0.04 0.05 0.06 0.08 0.08 0.10 0.11 0.12 0.14 0.14 0.13 0.14 0.17 0.21 0.22 0.23 0.24 0.22 0.20 0.20 0.20 0.18 0.14
0.00 0.00 0.00 0.00 0.00 0.00 0.00 0.00 0.00 0.00 0.00 0.00 0.00 0.00 0.01 0.01 0.01 0.01 0.02 0.03 0.03 0.03 0.04 0.04 0.05 0.05 0.05 0.07 0.09 0.09 0.09 0.11 0.13 0.14 0.16 0.17 0.17 0.17 0.18 0.16 0.14 0.13 0.11
0.00 0.00 0.00 0.00 0.00 0.00 0.00 0.00 0.00 0.00 0.00 0.00 0.00 0.00 0.00 0.00 0.00 0.01 0.01 0.01 0.01 0.01 0.02 0.03 0.03 0.03 0.04 0.04 0.06 0.07 0.08 0.09 0.11 0.13 0.12 0.14 0.15 0.16 0.16 0.15 0.12 0.09 0.07
0.00 0.00 0.00 0.00 0.00 0.00 0.00 0.00 0.00 0.00 0.00 0.00 0.00 0.00 0.00 0.00 0.00 0.00 0.00 0.00 0.00 0.00 0.00 0.00 0.01 0.01 0.02 0.03 0.04 0.05 0.06 0.07 0.10 0.12 0.11 0.12 0.12 0.11 0.12 0.12 0.09 0.07 0.05
0.00 0.00 0.00 0.00 0.00 0.00 0.00 0.00 0.00 0.00 0.00 0.00 0.00 0.00 0.00 0.00 0.00 0.00 0.00 0.00 0.00 0.00 0.00 0.00 0.00 0.00 0.00 0.01 0.02 0.03 0.05 0.07 0.10 0.11 0.11 0.11 0.11 0.11 0.09 0.08 0.06 0.05 0.05
0.00 0.00 0.00 0.00 0.00 0.00 0.00 0.00 0.00 0.00 0.00 0.00 0.00 0.00 0.00 0.00 0.00 0.00 0.00 0.00 0.00 0.00 0.00 0.00 0.00 0.00 0.01 0.01 0.01 0.02 0.04 0.07 0.09 0.09 0.09 0.08 0.08 0.10 0.08 0.05 0.05 0.05 0.06
0.00 0.00 0.00 0.00 0.00 0.00 0.00 0.00 0.00 0.00 0.00 0.00 0.00 0.00 0.00 0.00 0.00 0.00 0.00 0.00 0.00 0.00 0.00 0.00 0.00 0.01 0.01 0.02 0.02 0.03 0.05 0.08 0.10 0.07 0.07 0.07 0.06 0.07 0.06 0.05 0.07 0.06 0.07
0.00 0.00 0.00 0.00 0.00 0.00 0.00 0.00 0.00 0.00 0.00 0.00 0.00 0.00 0.00 0.00 0.00 0.00 0.00 0.00 0.00 0.00 0.00 0.01 0.01 0.01 0.01 0.02 0.03 0.05 0.07 0.10 0.12 0.09 0.07 0.11 0.10 0.07 0.06 0.05 0.06 0.06 0.05
0.00 0.00 0.00 0.00 0.00 0.00 0.00 0.00 0.00 0.00 0.00 0.00 0.00 0.00 0.00 0.00 0.00 0.00 0.00 0.00 0.00 0.00 0.01 0.01 0.02 0.02 0.02 0.03 0.03 0.08 0.11 0.15 0.15 0.10 0.08 0.09 0.09 0.07 0.06 0.06 0.05 0.05 0.05
0.00 0.00 0.00 0.00 0.00 0.00 0.00 0.00 0.00 0.00 0.00 0.00 0.00 0.00 0.00 0.00 0.00 0.00 0.00 0.00 0.00 0.01 0.01 0.01 0.01 0.02 0.03 0.03 0.04 0.09 0.13 0.15 0.14 0.11 0.08 0.07 0.08 0.07 0.06 0.06 0.07 0.07 0.06
0.00 0.00 0.00 0.00 0.00 0.00 0.00 0.00 0.00 0.00 0.00 0.00 0.00 0.00 0.00 0.00 0.00 0.00 0.00 0.00 0.00 0.00 0.01 0.01 0.01 0.03 0.03 0.03 0.05 0.08 0.09 0.11 0.12 0.11 0.10 0.08 0.07 0.05 0.05 0.07 0.07 0.06 0.05
0.00 0.00 0.00 0.00 0.00 0.00 0.00 0.00 0.00 0.00 0.00 0.00 0.00 0.00 0.00 0.00 0.00 0.00 0.00 0.00 0.00 0.00 0.00 0.01 0.01 0.02 0.01 0.02 0.04 0.05 0.06 0.07 0.09 0.08 0.08 0.07 0.06 0.05 0.04 0.06 0.06 0.05 0.05
0.00 0.00 0.00 0.00 0.00 0.00 0.00 0.00 0.00 0.00 0.00 0.00 0.00 0.00 0.00 0.00 0.00 0.00 0.00 0.00 0.00 0.00 0.00 0.00 0.00 0.00 0.01 0.01 0.03 0.04 0.03 0.04 0.05 0.05 0.04 0.04 0.04 0.04 0.04 0.04 0.05 0.04 0.04
0.00 0.00 0.00 0.00 0.00 0.00 0.00 0.00 0.00 0.00 0.00 0.00 0.00 0.00 0.00 0.00 0.00 0.00 0.00 0.00 0.00 0.00 0.00 0.00 0.00 0.00 0.00 0.01 0.01 0.02 0.02 0.02 0.03 0.05 0.04 0.02 0.02 0.02 0.03 0.04 0.04 0.03 0.03
MSLP
1019.82 1019.44 1019.07 1018.69 1018.29 1017.85 1017.39 1016.91 1016.45 1016.00 1015.60 1015.23 1014.90 1014.59 1014.30 1014.01 1013.72 1013.45 1013.19 1012.98 1012.84 1012.77 1012.80 1012.91 1013.10 1013.33 1013.60 1013.87 1014.14 1014.39 1014.62 1014.83 1015.04 1015.25 1015.45 1015.65 1015.83 1015.99 1016.11 1016.20 1016.27 1016.33 1016.41
1020.01 1019.64 1019.27 1018.87 1018.44 1017.96 1017.46 1016.94 1016.44 1015.97 1015.54 1015.16 1014.81 1014.49 1014.17 1013.85 1013.54 1013.23 1012.95 1012.72 1012.56 1012.50 1012.52 1012.64 1012.82 1013.04 1013.29 1013.53 1013.77 1013.99 1014.21 1014.43 1014.66 1014.92 1015.18 1015.44 1015.68 1015.89 1016.05 1016.16 1016.23 1016.29 1016.34
1020.05 1019.71 1019.35 1018.96 1018.53 1018.04 1017.52 1016.99 1016.47 1015.99 1015.54 1015.15 1014.78 1014.43 1014.08 1013.72 1013.36 1013.01 1012.69 1012.44 1012.26 1012.18 1012.19 1012.30 1012.46 1012.66 1012.88 1013.10 1013.31 1013.52 1013.73 1013.98 1014.25 1014.55 1014.88 1015.22 1015.53 1015.80 1016.02 1016.16 1016.25 1016.30 1016.34
1019.91 1019.61 1019.29 1018.93 1018.53 1018.06 1017.56 1017.03 1016.52 1016.04 1015.59 1015.18 1014.78 1014.40 1014.01 1013.61 1013.20 1012.80 1012.44 1012.15 1011.93 1011.82 1011.80 1011.87 1012.01 1012.18 1012.36 1012.55 1012.74 1012.95 1013.18 1013.44 1013.76 1014.13 1014.53 1014.94 1015.33 1015.67 1015.95 1016.14 1016.26 1016.32 1016.35
1019.64 1019.39 1019.12 1018.81 1018.45 1018.03 1017.56 1017.07 1016.57 1016.10 1015.65 1015.23 1014.82 1014.41 1013.98 1013.54 1013.08 1012.63 1012.22 1011.87 1011.61 1011.45 1011.38 1011.41 1011.49 1011.61 1011.76 1011.92 1012.09 1012.29 1012.53 1012.83 1013.20 1013.62 1014.09 1014.57 1015.03 1015.45 1015.78 1016.03 1016.19 1016.27 1016.32
1019.32 1019.11 1018.90 1018.65 1018.34 1017.97 1017.54 1017.09 1016.62 1016.16 1015.73 1015.30 1014.88 1014.45 1013.99 1013.51 1013.01 1012.52 1012.06 1011.66 1011.35 1011.12 1011.00 1010.95 1010.97 1011.04 1011.13 1011.25 1011.40 1011.59 1011.83 1012.15 1012.54 1013.01 1013.53 1014.07 1014.59 1015.07 1015.47 1015.78 1015.99 1016.12 1016.19
1019.03 1018.86 1018.69 1018.50 1018.24 1017.92 1017.54 1017.12 1016.68 1016.24 1015.82 1015.39 1014.97 1014.52 1014.05 1013.55 1013.03 1012.51 1012.01 1011.57 1011.20 1010.92 1010.72 1010.60 1010.55 1010.54 1010.57 1010.63 1010.73 1010.89 1011.12 1011.43 1011.83 1012.31 1012.85 1013.43 1014.00 1014.53 1014.99 1015.37 1015.65 1015.84 1015.96
1018.83 1018.68 1018.56 1018.40 1018.18 1017.90 1017.56 1017.17 1016.75 1016.34 1015.92 1015.51 1015.08 1014.64 1014.17 1013.67 1013.14 1012.62 1012.11 1011.64 1011.23 1010.89 1010.62 1010.42 1010.29 1010.19 1010.14 1010.13 1010.17 1010.27 1010.45 1010.73 1011.10 1011.56 1012.10 1012.68 1013.27 1013.84 1014.35 1014.80 1015.15 1015.43 1015.63
1018.72 1018.61 1018.50 1018.37 1018.18 1017.92 1017.61 1017.24 1016.85 1016.45 1016.05 1015.65 1015.24 1014.81 1014.36 1013.87 1013.37 1012.86 1012.35 1011.87 1011.44 1011.06 1010.74 1010.47 1010.24 1010.06 1009.91 1009.81 1009.76 1009.79 1009.90 1010.10 1010.41 1010.82 1011.32 1011.87 1012.46 1013.04 1013.61 1014.12 1014.56 1014.94 1015.23
1018.70 1018.60 1018.50 1018.38 1018.21 1017.97 1017.67 1017.32 1016.95 1016.57 1016.19 1015.81 1015.42 1015.02 1014.60 1014.15 1013.68 1013.20 1012.72 1012.26 1011.82 1011.42 1011.05 1010.72 1010.42 1010.15 1009.91 1009.71 1009.57 1009.50 1009.51 1009.62 1009.84 1010.16 1010.58 1011.08 1011.64 1012.23 1012.82 1013.39 1013.93 1014.41 1014.82
1018.70 1018.59 1018.50 1018.38 1018.21 1017.98 1017.70 1017.38 1017.04 1016.69 1016.34 1015.98 1015.63 1015.26 1014.88 1014.47 1014.05 1013.61 1013.17 1012.73 1012.31 1011.90 1011.50 1011.13 1010.77 1010.43 1010.11 1009.82 1009.58 1009.40 1009.31 1009.31 1009.42 1009.64 1009.97 1010.39 1010.90 1011.47 1012.07 1012.70 1013.31 1013.89 1014.42
1018.64 1018.52 1018.42 1018.29 1018.13 1017.92 1017.66 1017.38 1017.08 1016.77 1016.46 1016.15 1015.83 1015.50 1015.16 1014.79 1014.41 1014.02 1013.62 1013.21 1012.80 1012.40 1012.00 1011.60 1011.21 1010.81 1010.43 1010.07 1009.75 1009.49 1009.29 1009.19 1009.19 1009.30 1009.52 1009.86 1010.30 1010.83 1011.43 1012.08 1012.74 1013.41 1014.04
1018.48 1018.35 1018.23 1018.10 1017.94 1017.76 1017.54 1017.32 1017.07 1016.82 1016.56 1016.29 1016.01 1015.72 1015.40 1015.07 1014.72 1014.36 1013.99 1013.61 1013.23 1012.84 1012.45 1012.04 1011.63 1011.21 1010.80 1010.40 1010.02 1009.69 1009.42 1009.23 1009.14 1009.15 1009.28 1009.52 1009.88 1010.35 1010.92 1011.56 1012.26 1012.97 1013.68
1018.20 1018.05 1017.92 1017.78 1017.65 1017.50 1017.34 1017.18 1017.01 1016.83 1016.63 1016.41 1016.17 1015.90 1015.60 1015.29 1014.95 1014.60 1014.25 1013.89 1013.52 1013.15 1012.76 1012.37 1011.96 1011.55 1011.13 1010.71 1010.32 1009.96 1009.65 1009.41 1009.25 1009.18 1009.22 1009.38 1009.66 1010.06 1010.57 1011.18 1011.86 1012.58 1013.32
1017.85 1017.67 1017.52 1017.39 1017.28 1017.18 1017.09 1017.00 1016.91 1016.81 1016.67 1016.51 1016.30 1016.05 1015.76 1015.44 1015.10 1014.75 1014.39 1014.03 1013.67 1013.30 1012.94 1012.56 1012.17 1011.77 1011.37 1010.98 1010.60 1010.24 1009.93 1009.67 1009.47 1009.36 1009.34 1009.42 1009.62 1009.94 1010.38 1010.92 1011.55 1012.24 1012.97
1017.46 1017.27 1017.11 1016.98 1016.90 1016.85 1016.83 1016.83 1016.82 1016.79 1016.72 1016.60 1016.42 1016.18 1015.89 1015.56 1015.20 1014.83 1014.45 1014.08 1013.71 1013.35 1012.98 1012.62 1012.26 1011.89 1011.53 1011.17 1010.83 1010.51 1010.22 1009.98 1009.78 1009.65 1009.59 1009.62 1009.75 1009.99 1010.34 1010.80 1011.35 1011.97 1012.64
1017.10 1016.90 1016.73 1016.62 1016.57 1016.57 1016.62 1016.69 1016.76 1016.80 1016.78 1016.70 1016.54 1016.31 1016.01 1015.66 1015.28 1014.88 1014.49 1014.09 1013.71 1013.34 1012.98 1012.64 1012.29 1011.96 1011.63 1011.32 1011.03 1010.76 1010.52 1010.31 1010.14 1010.02 1009.95 1009.95 1010.03 1010.19 1010.46 1010.82 1011.27 1011.80 1012.38
1016.82 1016.61 1016.45 1016.35 1016.33 1016.38 1016.48 1016.61 1016.73 1016.83 1016.85 1016.80 1016.66 1016.44 1016.14 1015.78 1015.39 1014.97 1014.56 1014.15 1013.76 1013.39 1013.03 1012.68 1012.35 1012.04 1011.74 1011.47 1011.23 1011.01 1010.82 1010.66 1010.53 1010.43 1010.38 1010.37 1010.41 1010.53 1010.72 1011.00 1011.35 1011.78 1012.27
1016.59 1016.40 1016.26 1016.18 1016.19 1016.27 1016.40 1016.57 1016.73 1016.86 1016.91 1016.88 1016.76 1016.55 1016.26 1015.92 1015.53 1015.13 1014.72 1014.32 1013.93 1013.55 1013.19 1012.85 1012.52 1012.21 1011.93 1011.68 1011.47 1011.29 1011.14 1011.02 1010.94 1010.88 1010.85 1010.85 1010.89 1010.98 1011.12 1011.33 1011.61 1011.95 1012.35
1016.42 1016.25 1016.14 1016.09 1016.11 1016.21 1016.36 1016.54 1016.72 1016.85 1016.92 1016.91 1016.81 1016.62 1016.37 1016.06 1015.71 1015.34 1014.97 1014.60 1014.23 1013.87 1013.52 1013.17 1012.84 1012.53 1012.24 1011.99 1011.78 1011.62 1011.50 1011.41 1011.36 1011.34 1011.34 1011.37 1011.42 1011.50 1011.63 1011.80 1012.03 1012.31 1012.64
1016.22 1016.11 1016.03 1016.01 1016.06 1016.16 1016.31 1016.49 1016.65 1016.78 1016.85 1016.84 1016.77 1016.62 1016.41 1016.16 1015.89 1015.59 1015.29 1014.97 1014.65 1014.33 1013.99 1013.65 1013.31 1012.98 1012.68 1012.42 1012.19 1012.02 1011.90 1011.83 1011.80 1011.81 1011.84 1011.89 1011.97 1012.07 1012.20 1012.37 1012.59 1012.84 1013.13
1015.97 1015.91 1015.88 1015.89 1015.96 1016.06 1016.20 1016.35 1016.50 1016.60 1016.66 1016.67 1016.61 1016.51 1016.37 1016.21 1016.02 1015.82 1015.61 1015.38 1015.13 1014.85 1014.55 1014.23 1013.89 1013.55 1013.22 1012.93 1012.68 1012.49 1012.36 1012.28 1012.25 1012.27 1012.32 1012.40 1012.51 1012.64 1012.80 1012.99 1013.21 1013.47 1013.76
1015.61 1015.62 1015.64 1015.69 1015.76 1015.87 1016.00 1016.12 1016.24 1016.32 1016.37 1016.37 1016.35 1016.30 1016.23 1016.15 1016.07 1015.98 1015.87 1015.74 1015.57 1015.37 1015.11 1014.82 1014.49 1014.15 1013.81 1013.49 1013.22 1013.00 1012.84 1012.75 1012.71 1012.73 1012.79 1012.88 1013.01 1013.17 1013.36 1013.59 1013.84 1014.12 1014.44
1015.15 1015.20 1015.27 1015.36 1015.46 1015.57 1015.68 1015.79 1015.87 1015.94 1015.97 1015.99 1015.99 1015.98 1015.98 1015.99 1016.01 1016.02 1016.02 1015.98 1015.91 1015.77 1015.58 1015.32 1015.02 1014.70 1014.36 1014.03 1013.75 1013.51 1013.34 1013.22 1013.17 1013.18 1013.23 1013.33 1013.47 1013.65 1013.87 1014.12 1014.41 1014.73 1015.07
1014.57 1014.67 1014.77 1014.89 1015.02 1015.14 1015.25 1015.35 1015.42 1015.48 1015.51 1015.54 1015.56 1015.60 1015.66 1015.74 1015.83 1015.93 1016.02 1016.07 1016.06 1016.00 1015.87 1015.66 1015.41 1015.11 1014.81 1014.50 1014.22 1013.99 1013.81 1013.69 1013.63 1013.63 1013.67 1013.76 1013.89 1014.07 1014.29 1014.56 1014.87 1015.22 1015.59
1013.91 1014.02 1014.15 1014.29 1014.44 1014.58 1014.71 1014.82 1014.90 1014.96 1015.01 1015.06 1015.11 1015.19 1015.29 1015.42 1015.56 1015.72 1015.85 1015.96 1016.02 1016.01 1015.93 1015.79 1015.59 1015.35 1015.09 1014.84 1014.60 1014.40 1014.25 1014.14 1014.08 1014.07 1014.09 1014.16 1014.28 1014.43 1014.64 1014.90 1015.21 1015.56 1015.96
Thickness
5677 5677 5677 5676 5675 5675 5674 5675 5676 5678 5680 5683 5685 5688 5692 5698 5703 5708 5712 5716 5720 5724 5727 5730 5733 5735 5736 5737 5738 5737 5737 5739 5742 5740 5739 5743 5748 5750 5751 5751 5750 5750 5750
5669 5669 5669 5668 5667 5666 5666 5667 5667 5669 5671 5674 5676 5680 5683 5688 5693 5698 5703 5707 5711 5715 5719 5722 5725 5728 5729 5731 5732 5732 5731 5733 5736 5733 5728 5727 5732 5740 5747 5747 5747 5748 5748
5664 5663 5662 5661 5660 5659 5659 5659 5660 5662 5664 5667 5669 5672 5675 5679 5682 5686 5691 5697 5702 5706 5710 5714 5718 5721 5724 5726 5728 5729 5728 5726 5729 5732 5728 5721 5720 5727 5736 5741 5744 5745 5745
5662 5660 5659 5657 5655 5654 5654 5654 5654 5656 5658 5660 5661 5662 5664 5666 5670 5675 5680 5686 5692 5697 5702 5706 5710 5714 5718 5721 5724 5726 5726 5724 5723 5725 5729 5730 5729 5724 5724 5731 5737 5740 5741
5661 5658 5657 5655 5654 5652 5651 5650 5650 5651 5652 5653 5654 5655 5656 5659 5663 5667 5671 5677 5682 5688 5693 5698 5702 5706 5711 5715 5718 5721 5722 5722 5721 5721 5722 5723 5724 5727 5723 5721 5726 5730 5735
5661 5658 5657 5655 5652 5651 5649 5648 5646 5647 5648 5648 5649 5650 5651 5653 5656 5659 5663 5667 5673 5678 5684 5690 5695 5700 5704 5708 5712 5714 5716 5718 5718 5719 5719 5720 5719 5719 5720 5718 5719 5721 5726
5660 5658 5656 5653 5651 5649 5648 5646 5644 5644 5645 5645 5645 5646 5647 5649 5650 5653 5656 5660 5664 5669 5675 5681 5687 5692 5697 5702 5706 5708 5710 5713 5714 5715 5716 5718 5719 5720 5719 5716 5714 5715 5718
5661 5659 5657 5654 5652 5650 5648 5646 5644 5642 5643 5643 5643 5644 5645 5646 5647 5649 5651 5654 5658 5662 5668 5674 5680 5685 5690 5695 5700 5702 5705 5708 5709 5711 5713 5713 5715 5717 5717 5715 5711 5708 5709
5665 5662 5660 5657 5654 5651 5649 5647 5645 5643 5642 5641 5642 5642 5644 5644 5644 5646 5648 5649 5653 5657 5661 5667 5672 5677 5682 5687 5691 5695 5698 5702 5705 5706 5708 5709 5711 5712 5714 5714 5713 5708 5703
5666 5664 5661 5659 5656 5654 5651 5649 5647 5644 5642 5641 5641 5641 5641 5642 5642 5643 5643 5645 5647 5651 5654 5659 5663 5668 5674 5679 5683 5687 5692 5695 5698 5701 5702 5704 5705 5706 5708 5709 5709 5709 5705
5668 5666 5664 5662 5659 5656 5653 5650 5647 5645 5643 5641 5640 5639 5639 5639 5639 5639 5639 5640 5642 5645 5648 5651 5655 5660 5665 5670 5675 5679 5684 5687 5691 5694 5696 5698 5699 5700 5701 5702 5702 5702 5701
5672 5669 5667 5664 5660 5657 5654 5651 5648 5646 5644 5642 5640 5639 5637 5637 5636 5636 5636 5637 5638 5640 5642 5645 5648 5652 5657 5661 5666 5670 5675 5679 5683 5687 5688 5690 5693 5693 5695 5695 5695 5696 5697
5675 5671 5668 5665 5662 5659 5656 5653 5650 5647 5645 5643 5640 5638 5636 5635 5634 5633 5633 5634 5634 5635 5637 5639 5641 5645 5649 5653 5658 5662 5667 5671 5676 5679 5682 5685 5686 5686 5688 5688 5689 5690 5691
5677 5674 5670 5667 5665 5662 5659 5655 5652 5649 5646 5643 5640 5637 5635 5633 5632 5631 5630 5630 5630 5631 5632 5633 5635 5638 5642 5646 5650 5655 5659 5663 5668 5672 5676 5678 5680 5681 5682 5683 5683 5683 5683
5681 5678 5674 5671 5668 5664 5661 5658 5654 5651 5647 5643 5640 5637 5635 5632 5630 5629 5627 5627 5626 5627 5627 5628 5630 5633 5637 5641 5644 5648 5651 5655 5659 5664 5668 5671 5674 5676 5677 5678 5677 5677 5677
5685 5683 5680 5676 5672 5668 5664 5660 5655 5652 5648 5643 5639 5637 5634 5631 5628 5626 5625 5623 5622 5622 5623 5623 5624 5627 5631 5635 5639 5642 5644 5648 5651 5655 5659 5663 5666 5668 5670 5671 5672 5672 5672
5689 5686 5683 5679 5675 5671 5667 5662 5658 5653 5649 5644 5640 5637 5633 5630 5626 5624 5622 5620 5618 5618 5617 5618 5619 5621 5624 5629 5633 5636 5638 5641 5644 5647 5651 5655 5658 5660 5661 5663 5664 5665 5667
5693 5690 5687 5683 5680 5676 5671 5666 5660 5655 5650 5645 5641 5637 5633 5629 5625 5622 5620 5618 5616 5614 5613 5613 5614 5616 5620 5624 5627 5630 5632 5633 5636 5639 5643 5646 5649 5652 5654 5655 5655 5657 5660
5698 5695 5692 5688 5684 5679 5674 5667 5661 5656 5651 5647 5643 5638 5634 5630 5625 5622 5619 5617 5614 5612 5611 5610 5610 5611 5614 5619 5622 5624 5626 5627 5629 5632 5635 5638 5640 5644 5647 5648 5648 5650 5652
5704 5700 5696 5691 5686 5682 5676 5669 5662 5657 5653 5649 5645 5641 5636 5631 5627 5623 5620 5617 5614 5612 5610 5609 5608 5608 5609 5614 5618 5620 5620 5621 5623 5625 5627 5631 5634 5637 5640 5642 5643 5643 5645
5708 5704 5699 5693 5689 5685 5678 5671 5665 5660 5658 5654 5649 5644 5639 5634 5630 5626 5622 5619 5615 5612 5610 5608 5606 5605 5606 5609 5612 5615 5616 5617 5618 5619 5621 5624 5628 5631 5633 5636 5638 5639 5641
5710 5706 5699 5695 5692 5687 5681 5674 5668 5666 5662 5657 5652 5646 5642 5638 5634 5628 5624 5620 5616 5613 5609 5607 5605 5604 5604 5606 5608 5610 5612 5613 5614 5614 5616 5619 5622 5625 5628 5630 5632 5634 5635
5711 5708 5702 5697 5694 5690 5685 5678 5674 5671 5666 5660 5655 5650 5645 5640 5636 5631 5626 5621 5617 5613 5610 5607 5604 5603 5602 5603 5605 5607 5608 5610 5610 5611 5613 5616 5618 5621 5623 5625 5627 5629 5628
5713 5709 5704 5699 5695 5693 5689 5685 5681 5676 5669 5663 5658 5653 5648 5643 5638 5633 5628 5624 5619 5615 5612 5608 5605 5603 5602 5602 5603 5604 5606 5608 5608 5609 5611 5613 5615 5617 5619 5621 5622 5623 5623
5715 5711 5706 5701 5699 5696 5692 5689 5685 5679 5672 5667 5662 5657 5652 5646 5641 5636 5631 5627 5623 5619 5615 5611 5608 5605 5604 5604 5605 5605 5606 5607 5608 5609 5610 5611 5612 5613 5614 5616 5617 5619 5620
5715 5711 5707 5704 5701 5698 5694 5692 5688 5683 5676 5670 5665 5660 5655 5650 5645 5640 5635 5632 5628 5625 5622 5618 5614 5611 5610 5609 5609 5610 5610 5611 5611 5611 5609 5609 5610 5611 5613 5614 5615 5616 5618